TimeCDT,TemperatureF,Dew PointF,Humidity,Sea Level PressureIn,VisibilityMPH,Wind Direction,Wind SpeedMPH,Gust SpeedMPH,PrecipitationIn,Events,Conditions,WindDirDegrees,DateUTC
12:15 AM,70.9,64.9,81,30.02,10.0,Calm,Calm,-,N/A,,Clear,0,2013-08-29 05:15:00
12:35 AM,71.8,64.4,77,30.03,10.0,Calm,Calm,-,N/A,,Clear,0,2013-08-29 05:35:00
12:55 AM,71.8,64.4,77,30.03,10.0,Calm,Calm,-,N/A,,Clear,0,2013-08-29 05:55:00
1:15 AM,71.1,64.4,79,30.03,10.0,Calm,Calm,-,N/A,,Clear,0,2013-08-29 06:15:00
1:35 AM,70.0,63.9,81,30.03,10.0,SE,4.6,-,N/A,,Clear,140,2013-08-29 06:35:00
1:55 AM,69.3,63.9,83,30.03,10.0,Calm,Calm,-,N/A,,Clear,0,2013-08-29 06:55:00
2:15 AM,67.8,63.9,87,30.03,10.0,Calm,Calm,-,N/A,,Clear,0,2013-08-29 07:15:00
2:35 AM,67.6,63.9,88,30.02,10.0,ESE,3.5,-,N/A,,Clear,120,2013-08-29 07:35:00
2:55 AM,67.5,63.3,87,30.02,10.0,SE,3.5,-,N/A,,Clear,130,2013-08-29 07:55:00
3:15 AM,66.2,63.3,90,30.02,10.0,Calm,Calm,-,N/A,,Clear,0,2013-08-29 08:15:00
3:35 AM,65.7,62.8,90,30.01,10.0,SSE,3.5,-,N/A,,Clear,160,2013-08-29 08:35:00
3:55 AM,65.7,63.5,93,30.01,7.0,ESE,3.5,-,N/A,,Clear,120,2013-08-29 08:55:00
4:15 AM,66.2,63.5,91,30.00,7.0,ESE,4.6,-,N/A,,Clear,120,2013-08-29 09:15:00
4:35 AM,66.4,63.1,89,30.00,10.0,SE,4.6,-,N/A,,Clear,130,2013-08-29 09:35:00
4:55 AM,67.3,63.5,88,30.00,10.0,ESE,4.6,-,N/A,,Clear,120,2013-08-29 09:55:00
5:15 AM,66.7,63.5,89,30.00,7.0,SE,4.6,-,N/A,,Clear,130,2013-08-29 10:15:00
5:35 AM,66.7,63.5,89,30.00,7.0,Calm,Calm,-,N/A,,Clear,0,2013-08-29 10:35:00
5:55 AM,66.6,63.3,89,30.00,7.0,ESE,3.5,-,N/A,,Clear,110,2013-08-29 10:55:00
6:15 AM,66.9,63.3,88,30.00,7.0,SE,4.6,-,N/A,,Clear,140,2013-08-29 11:15:00
6:35 AM,64.8,62.6,93,30.00,5.0,Calm,Calm,-,N/A,,Clear,0,2013-08-29 11:35:00
6:55 AM,66.2,64.2,93,30.00,5.0,East,4.6,-,N/A,,Clear,100,2013-08-29 11:55:00
7:15 AM,66.7,63.7,90,30.00,5.0,SE,4.6,-,N/A,,Clear,130,2013-08-29 12:15:00
7:35 AM,66.4,63.9,92,30.01,5.0,Calm,Calm,-,N/A,,Clear,0,2013-08-29 12:35:00
7:55 AM,68.2,64.8,89,30.00,7.0,ESE,5.8,-,N/A,,Clear,110,2013-08-29 12:55:00
8:15 AM,69.6,65.5,87,30.01,7.0,SE,3.5,-,N/A,,Clear,140,2013-08-29 13:15:00
8:35 AM,70.3,66.0,86,30.01,7.0,SSE,3.5,-,N/A,,Clear,160,2013-08-29 13:35:00
8:55 AM,70.7,66.2,86,30.01,7.0,SE,4.6,-,N/A,,Clear,130,2013-08-29 13:55:00
9:15 AM,72.5,67.6,85,30.00,10.0,SE,5.8,-,N/A,,Clear,140,2013-08-29 14:15:00
9:35 AM,75.0,69.1,82,30.01,10.0,SE,3.5,-,N/A,,Clear,140,2013-08-29 14:35:00
9:55 AM,77.4,68.9,75,30.01,10.0,SSE,8.1,-,N/A,,Clear,160,2013-08-29 14:55:00
10:15 AM,79.2,70.0,73,30.00,10.0,South,6.9,-,N/A,,Clear,170,2013-08-29 15:15:00
10:35 AM,79.9,70.0,72,30.00,10.0,SSE,8.1,-,N/A,,Clear,160,2013-08-29 15:35:00
10:55 AM,81.1,70.2,69,29.99,10.0,South,8.1,-,N/A,,Clear,170,2013-08-29 15:55:00
11:15 AM,82.4,70.2,66,29.99,10.0,South,9.2,-,N/A,,Clear,170,2013-08-29 16:15:00
11:35 AM,83.7,71.6,67,29.99,10.0,SSE,9.2,-,N/A,,Clear,150,2013-08-29 16:35:00
12:15 PM,85.3,71.1,62,29.99,10.0,SSE,8.1,-,N/A,,Clear,150,2013-08-29 17:15:00
12:55 PM,87.1,69.8,56,29.99,10.0,South,10.4,-,N/A,,Clear,180,2013-08-29 17:55:00
1:15 PM,87.8,70.0,55,29.98,10.0,South,10.4,-,N/A,,Clear,180,2013-08-29 18:15:00
1:35 PM,88.2,70.9,56,29.98,10.0,SSE,9.2,-,N/A,,Clear,160,2013-08-29 18:35:00
1:55 PM,88.7,71.6,57,29.97,10.0,SSW,8.1,-,N/A,,Clear,200,2013-08-29 18:55:00
2:15 PM,89.2,70.3,53,29.97,10.0,South,10.4,-,N/A,,Clear,170,2013-08-29 19:15:00
2:35 PM,90.1,71.6,54,29.96,10.0,SSE,9.2,-,N/A,,Clear,160,2013-08-29 19:35:00
2:55 PM,90.5,70.9,52,29.96,10.0,South,9.2,-,N/A,,Clear,180,2013-08-29 19:55:00
3:15 PM,90.7,71.1,52,29.96,10.0,SSE,10.4,-,N/A,,Clear,160,2013-08-29 20:15:00
3:35 PM,91.0,71.1,52,29.96,10.0,SSE,10.4,-,N/A,,Clear,160,2013-08-29 20:35:00
3:55 PM,91.4,70.9,51,29.95,10.0,SSE,10.4,-,N/A,,Clear,160,2013-08-29 20:55:00
4:15 PM,91.4,70.9,51,29.95,10.0,South,10.4,-,N/A,,Clear,190,2013-08-29 21:15:00
4:35 PM,91.6,72.5,53,29.94,10.0,South,8.1,-,N/A,,Clear,180,2013-08-29 21:35:00
4:55 PM,91.6,71.2,51,29.94,10.0,South,9.2,-,N/A,,Clear,180,2013-08-29 21:55:00
5:15 PM,91.4,71.4,52,29.93,10.0,South,8.1,-,N/A,,Clear,180,2013-08-29 22:15:00
5:35 PM,91.0,71.8,53,29.93,10.0,South,8.1,-,N/A,,Clear,180,2013-08-29 22:35:00
5:55 PM,90.7,72.7,55,29.93,10.0,SSE,8.1,-,N/A,,Clear,160,2013-08-29 22:55:00
6:15 PM,89.8,72.9,57,29.93,10.0,SSE,5.8,-,N/A,,Clear,160,2013-08-29 23:15:00
6:35 PM,88.9,73.2,60,29.93,10.0,SSE,6.9,-,N/A,,Clear,150,2013-08-29 23:35:00
6:55 PM,88.0,73.6,62,29.92,10.0,SE,5.8,-,N/A,,Clear,140,2013-08-29 23:55:00
7:15 PM,87.1,73.8,64,29.92,10.0,SE,4.6,-,N/A,,Clear,130,2013-08-30 00:15:00
7:35 PM,86.0,73.2,65,29.92,10.0,SE,5.8,-,N/A,,Clear,140,2013-08-30 00:35:00
7:55 PM,84.2,72.7,68,29.93,10.0,SE,4.6,-,N/A,,Clear,130,2013-08-30 00:55:00
8:15 PM,81.7,72.5,74,29.93,10.0,SE,5.8,-,N/A,,Clear,140,2013-08-30 01:15:00
8:35 PM,80.6,72.1,75,29.93,10.0,SE,3.5,-,N/A,,Clear,140,2013-08-30 01:35:00
8:55 PM,79.5,71.6,77,29.94,10.0,SSE,4.6,-,N/A,,Clear,150,2013-08-30 01:55:00
9:15 PM,79.9,71.2,75,29.94,10.0,SE,4.6,-,N/A,,Clear,140,2013-08-30 02:15:00
9:35 PM,78.1,70.5,77,29.95,10.0,SE,4.6,-,N/A,,Clear,140,2013-08-30 02:35:00
9:55 PM,78.6,70.3,76,29.95,10.0,SSE,3.5,-,N/A,,Clear,160,2013-08-30 02:55:00
10:15 PM,78.3,70.2,76,29.95,10.0,SSE,3.5,-,N/A,,Clear,160,2013-08-30 03:15:00
10:35 PM,76.3,70.0,81,29.95,10.0,Calm,Calm,-,N/A,,Clear,0,2013-08-30 03:35:00
10:55 PM,77.4,69.8,77,29.94,10.0,Calm,Calm,-,N/A,,Clear,0,2013-08-30 03:55:00
11:15 PM,76.8,69.3,77,29.94,10.0,Calm,Calm,-,N/A,,Clear,0,2013-08-30 04:15:00
11:35 PM,76.5,68.9,77,29.94,10.0,Calm,Calm,-,N/A,,Clear,0,2013-08-30 04:35:00
11:55 PM,75.9,68.7,78,29.94,10.0,Calm,Calm,-,N/A,,Clear,0,2013-08-30 04:55:00